Year,Month,Day,Hour,Minute,Value (Times are PST for temperature in C)
2011,02,20,09,15,2.60
2011,02,20,09,16,2.70
2011,02,20,09,17,2.70
2011,02,20,09,18,2.70
2011,02,20,09,19,2.80
2011,02,20,09,20,2.90
2011,02,20,09,21,2.90
2011,02,20,09,22,2.90
2011,02,20,09,23,2.90
2011,02,20,09,24,3.00
2011,02,20,09,25,3.10
2011,02,20,09,26,3.10
2011,02,20,09,27,3.10
2011,02,20,09,28,3.10
2011,02,20,09,29,3.20
2011,02,20,09,30,3.30
2011,02,20,09,31,3.30
2011,02,20,09,32,3.40
2011,02,20,09,33,3.50
2011,02,20,09,34,3.60
2011,02,20,09,35,3.70
2011,02,20,09,36,3.80
2011,02,20,09,37,3.80
2011,02,20,09,38,3.70
2011,02,20,09,39,3.60
2011,02,20,09,40,3.60
2011,02,20,09,41,3.50
2011,02,20,09,42,3.40
2011,02,20,09,43,3.30
2011,02,20,09,44,3.30
2011,02,20,09,45,3.30
2011,02,20,09,46,3.20
2011,02,20,09,47,3.20
2011,02,20,09,48,3.20
2011,02,20,09,49,3.20
2011,02,20,09,50,3.20
2011,02,20,09,51,3.20
2011,02,20,09,52,3.20
2011,02,20,09,53,3.20
2011,02,20,09,54,3.20
2011,02,20,09,55,3.20
2011,02,20,09,56,3.20
2011,02,20,09,57,3.20
2011,02,20,09,58,3.30
2011,02,20,09,59,3.30
2011,02,20,10,00,3.30
2011,02,20,10,01,3.30
2011,02,20,10,02,3.20
2011,02,20,10,03,3.20
2011,02,20,10,04,3.20
2011,02,20,10,05,3.20
2011,02,20,10,06,3.30
2011,02,20,10,07,3.30
2011,02,20,10,08,3.30
2011,02,20,10,09,3.30
2011,02,20,10,10,3.30
2011,02,20,10,11,3.30
2011,02,20,10,12,3.40
2011,02,20,10,13,3.50
2011,02,20,10,14,3.50
2011,02,20,10,15,3.50
2011,02,20,10,16,3.50
2011,02,20,10,17,3.50
2011,02,20,10,18,3.50
2011,02,20,10,19,3.50
2011,02,20,10,20,3.60
2011,02,20,10,21,3.60
2011,02,20,10,22,3.60
2011,02,20,10,23,3.50
2011,02,20,10,24,3.50
2011,02,20,10,25,3.40
2011,02,20,10,26,3.40
2011,02,20,10,27,3.40
2011,02,20,10,28,3.50
2011,02,20,10,29,3.60
2011,02,20,10,30,3.60
2011,02,20,10,31,3.70
2011,02,20,10,32,3.70
2011,02,20,10,33,3.60
2011,02,20,10,34,3.60
2011,02,20,10,35,3.60
2011,02,20,10,36,3.60
2011,02,20,10,37,3.70
2011,02,20,10,38,3.70
2011,02,20,10,39,3.70
2011,02,20,10,40,3.60
2011,02,20,10,41,3.50
2011,02,20,10,42,3.50
2011,02,20,10,43,3.40
2011,02,20,10,44,3.40
2011,02,20,10,45,3.40
2011,02,20,10,46,3.40
2011,02,20,10,47,3.40
2011,02,20,10,48,3.50
2011,02,20,10,49,3.50
2011,02,20,10,50,3.50
2011,02,20,10,51,3.40
2011,02,20,10,52,3.40
2011,02,20,10,53,3.30
2011,02,20,10,54,3.30
2011,02,20,10,55,3.30
2011,02,20,10,56,3.30
2011,02,20,10,57,3.30
2011,02,20,10,58,3.30
2011,02,20,10,59,3.30
2011,02,20,11,00,3.30
2011,02,20,11,01,3.30
2011,02,20,11,02,3.30
2011,02,20,11,03,3.40
2011,02,20,11,04,3.50
2011,02,20,11,05,3.60
2011,02,20,11,06,3.70
2011,02,20,11,07,3.80
2011,02,20,11,08,3.80
2011,02,20,11,09,3.80
2011,02,20,11,10,3.90
2011,02,20,11,11,4.00
2011,02,20,11,12,4.10
2011,02,20,11,13,4.10
2011,02,20,11,14,4.20
2011,02,20,11,15,4.30
2011,02,20,11,16,4.30
2011,02,20,11,17,4.20
2011,02,20,11,18,4.20
2011,02,20,11,19,4.20
2011,02,20,11,20,4.20
2011,02,20,11,21,4.20
2011,02,20,11,22,4.10
2011,02,20,11,23,4.10
2011,02,20,11,24,4.10
2011,02,20,11,25,4.10
2011,02,20,11,26,4.20
2011,02,20,11,27,4.20
2011,02,20,11,28,4.20
2011,02,20,11,29,4.30
2011,02,20,11,30,4.40
2011,02,20,11,31,4.40
2011,02,20,11,32,4.50
2011,02,20,11,33,4.40
2011,02,20,11,34,4.40
2011,02,20,11,35,4.40
2011,02,20,11,36,4.50
2011,02,20,11,37,4.50
2011,02,20,11,38,4.30
2011,02,20,11,39,4.20
2011,02,20,11,40,4.10
2011,02,20,11,41,4.00
2011,02,20,11,42,4.00
2011,02,20,11,43,3.90
2011,02,20,11,44,3.90
2011,02,20,11,45,3.90
2011,02,20,11,46,4.00
2011,02,20,11,47,4.00
2011,02,20,11,48,4.10
2011,02,20,11,49,4.20
2011,02,20,11,50,4.20
2011,02,20,11,51,4.30
2011,02,20,11,52,4.50
2011,02,20,11,53,4.60
2011,02,20,11,54,4.70
2011,02,20,11,55,4.80
2011,02,20,11,56,4.80
2011,02,20,11,57,4.80
2011,02,20,11,58,4.80
2011,02,20,11,59,4.80
2011,02,20,12,00,4.70
2011,02,20,12,01,4.70
2011,02,20,12,02,4.70
2011,02,20,12,03,4.60
2011,02,20,12,04,4.60
2011,02,20,12,05,4.60
2011,02,20,12,06,4.60
2011,02,20,12,07,4.60
2011,02,20,12,08,4.60
2011,02,20,12,09,4.60
2011,02,20,12,10,4.60
2011,02,20,12,11,4.70
2011,02,20,12,12,4.60
2011,02,20,12,13,4.60
2011,02,20,12,14,4.60
2011,02,20,12,15,4.70
2011,02,20,12,16,4.80
2011,02,20,12,17,4.80
2011,02,20,12,18,4.90
2011,02,20,12,19,4.90
2011,02,20,12,20,4.90
2011,02,20,12,21,4.90
2011,02,20,12,22,5.00
2011,02,20,12,23,5.10
2011,02,20,12,24,5.10
2011,02,20,12,25,5.20
2011,02,20,12,26,5.20
2011,02,20,12,27,5.20
2011,02,20,12,28,5.10
2011,02,20,12,29,5.00
2011,02,20,12,30,4.90
2011,02,20,12,31,4.90
2011,02,20,12,32,4.90
2011,02,20,12,33,4.90
2011,02,20,12,34,5.00
2011,02,20,12,35,5.10
2011,02,20,12,36,5.10
2011,02,20,12,37,5.20
2011,02,20,12,38,5.30
2011,02,20,12,39,5.30
2011,02,20,12,40,5.30
2011,02,20,12,41,5.20
2011,02,20,12,42,5.20
2011,02,20,12,43,5.20
2011,02,20,12,44,5.20
2011,02,20,12,45,5.20
2011,02,20,12,46,5.20
2011,02,20,12,47,5.20
2011,02,20,12,48,5.30
2011,02,20,12,49,5.30
2011,02,20,12,50,5.30
2011,02,20,12,51,5.30
2011,02,20,12,52,5.30
2011,02,20,12,53,5.30
2011,02,20,12,54,5.30
2011,02,20,12,55,5.30
2011,02,20,12,56,5.40
2011,02,20,12,57,5.40
2011,02,20,12,58,5.50
2011,02,20,12,59,5.60
2011,02,20,13,00,5.50
2011,02,20,13,01,5.50
2011,02,20,13,02,5.60
2011,02,20,13,03,5.60
2011,02,20,13,04,5.60
2011,02,20,13,05,5.70
2011,02,20,13,06,5.70
2011,02,20,13,07,5.70
2011,02,20,13,08,5.70
2011,02,20,13,09,5.60
2011,02,20,13,10,5.40
2011,02,20,13,11,5.40
2011,02,20,13,12,5.40
2011,02,20,13,13,5.40
2011,02,20,13,14,5.40
2011,02,20,13,15,5.40
2011,02,20,13,16,5.40
2011,02,20,13,17,5.40
2011,02,20,13,18,5.40
2011,02,20,13,19,5.30
2011,02,20,13,20,5.20
2011,02,20,13,21,5.10
2011,02,20,13,22,5.10
2011,02,20,13,23,5.10
2011,02,20,13,24,5.10
2011,02,20,13,25,5.10
2011,02,20,13,26,5.10
2011,02,20,13,27,5.00
2011,02,20,13,28,4.90
2011,02,20,13,29,4.90
2011,02,20,13,30,5.00
2011,02,20,13,31,5.10
2011,02,20,13,32,5.10
2011,02,20,13,33,5.10
2011,02,20,13,34,5.20
2011,02,20,13,35,5.30
2011,02,20,13,36,5.30
2011,02,20,13,37,5.20
2011,02,20,13,38,5.30
2011,02,20,13,39,5.20
2011,02,20,13,40,5.10
2011,02,20,13,41,5.10
2011,02,20,13,42,5.10
2011,02,20,13,43,5.10
2011,02,20,13,44,5.20
2011,02,20,13,45,5.20
2011,02,20,13,46,5.20
2011,02,20,13,47,5.30
2011,02,20,13,48,5.30
2011,02,20,13,49,5.20
2011,02,20,13,50,5.20
2011,02,20,13,51,5.10
2011,02,20,13,52,5.10
2011,02,20,13,53,5.00
2011,02,20,13,54,4.90
2011,02,20,13,55,4.90
2011,02,20,13,56,4.90
2011,02,20,13,57,4.90
2011,02,20,13,58,4.90
2011,02,20,13,59,4.90
2011,02,20,14,00,4.90
2011,02,20,14,01,4.80
2011,02,20,14,02,4.80
2011,02,20,14,03,4.80
2011,02,20,14,04,4.90
2011,02,20,14,05,4.90
2011,02,20,14,06,4.90
2011,02,20,14,07,4.90
2011,02,20,14,08,4.90
2011,02,20,14,09,4.90
2011,02,20,14,10,4.80
2011,02,20,14,11,4.80
2011,02,20,14,12,4.90
2011,02,20,14,13,4.90
2011,02,20,14,14,5.00
2011,02,20,14,15,5.10
2011,02,20,14,16,5.10
2011,02,20,14,17,5.10
2011,02,20,14,18,5.10
2011,02,20,14,19,4.90
2011,02,20,14,20,4.90
2011,02,20,14,21,4.90
2011,02,20,14,22,4.90
2011,02,20,14,23,4.90
2011,02,20,14,24,4.90
2011,02,20,14,25,4.90
2011,02,20,14,26,4.90
2011,02,20,14,27,4.90
2011,02,20,14,28,4.90
2011,02,20,14,29,4.90
2011,02,20,14,30,4.90
2011,02,20,14,31,5.00
2011,02,20,14,32,5.10
2011,02,20,14,33,5.10
2011,02,20,14,34,5.20
2011,02,20,14,35,5.30
2011,02,20,14,36,5.30
2011,02,20,14,37,5.30
2011,02,20,14,38,5.50
2011,02,20,14,39,5.50
2011,02,20,14,40,5.60
2011,02,20,14,41,5.60
2011,02,20,14,42,5.50
2011,02,20,14,43,5.50
2011,02,20,14,44,5.50
2011,02,20,14,45,5.50
2011,02,20,14,46,5.40
2011,02,20,14,47,5.50
2011,02,20,14,48,5.50
2011,02,20,14,49,5.50
2011,02,20,14,50,5.60
2011,02,20,14,51,5.50
2011,02,20,14,52,5.50
2011,02,20,14,53,5.40
2011,02,20,14,54,5.30
2011,02,20,14,55,5.30
2011,02,20,14,56,5.30
2011,02,20,14,57,5.30
2011,02,20,14,58,5.30
2011,02,20,14,59,5.30
2011,02,20,15,00,5.30
2011,02,20,15,01,5.30
2011,02,20,15,02,5.40
2011,02,20,15,03,5.50
2011,02,20,15,04,5.50
2011,02,20,15,05,5.50
2011,02,20,15,06,5.50
2011,02,20,15,07,5.40
2011,02,20,15,08,5.40
2011,02,20,15,09,5.40
2011,02,20,15,10,5.40
2011,02,20,15,11,5.40
2011,02,20,15,12,5.30
2011,02,20,15,13,5.30
2011,02,20,15,14,5.30
2011,02,20,15,15,5.30
2011,02,20,15,16,5.30
2011,02,20,15,17,5.30
2011,02,20,15,18,5.30
2011,02,20,15,19,5.30
2011,02,20,15,20,5.30
2011,02,20,15,21,5.30
2011,02,20,15,22,5.30
2011,02,20,15,23,5.30
2011,02,20,15,24,5.30
2011,02,20,15,25,5.30
2011,02,20,15,26,5.30
2011,02,20,15,27,5.30
2011,02,20,15,28,5.30
2011,02,20,15,29,5.30
2011,02,20,15,30,5.40
2011,02,20,15,31,5.30
2011,02,20,15,32,5.30
2011,02,20,15,33,5.30
2011,02,20,15,34,5.30
2011,02,20,15,35,5.30
2011,02,20,15,36,5.40
2011,02,20,15,37,5.40
2011,02,20,15,38,5.40
2011,02,20,15,39,5.40
2011,02,20,15,40,5.40
2011,02,20,15,41,5.40
2011,02,20,15,42,5.40
2011,02,20,15,43,5.40
2011,02,20,15,44,5.40
2011,02,20,15,45,5.40
2011,02,20,15,46,5.50
2011,02,20,15,47,5.60
2011,02,20,15,48,5.70
2011,02,20,15,49,5.60
2011,02,20,15,50,5.60
2011,02,20,15,51,5.60
2011,02,20,15,52,5.60
2011,02,20,15,53,5.50
2011,02,20,15,54,5.60
2011,02,20,15,55,5.60
2011,02,20,15,56,5.50
2011,02,20,15,57,5.50
2011,02,20,15,58,5.40
2011,02,20,15,59,5.40
2011,02,20,16,00,5.50
2011,02,20,16,01,5.40
2011,02,20,16,02,5.30
2011,02,20,16,03,5.40
2011,02,20,16,04,5.40
2011,02,20,16,05,5.40
2011,02,20,16,06,5.40
2011,02,20,16,07,5.30
2011,02,20,16,08,5.30
2011,02,20,16,09,5.30
2011,02,20,16,10,5.30
2011,02,20,16,11,5.30
2011,02,20,16,12,5.30
2011,02,20,16,13,5.50
2011,02,20,16,14,5.50
2011,02,20,16,15,5.50
2011,02,20,16,16,5.50
2011,02,20,16,17,5.50
2011,02,20,16,18,5.50
2011,02,20,16,19,5.50
2011,02,20,16,20,5.40
2011,02,20,16,21,5.30
2011,02,20,16,22,5.30
2011,02,20,16,23,5.30
2011,02,20,16,24,5.20
2011,02,20,16,25,5.20
2011,02,20,16,26,5.10
2011,02,20,16,27,5.10
2011,02,20,16,28,5.20
2011,02,20,16,29,5.20
2011,02,20,16,30,5.30
2011,02,20,16,31,5.30
2011,02,20,16,32,5.30
2011,02,20,16,33,5.30
2011,02,20,16,34,5.30
2011,02,20,16,35,5.30
2011,02,20,16,36,5.30
2011,02,20,16,37,5.30
2011,02,20,16,38,5.30
2011,02,20,16,39,5.30
2011,02,20,16,40,5.30
2011,02,20,16,41,5.30
2011,02,20,16,42,5.30
2011,02,20,16,43,5.30
2011,02,20,16,44,5.30
2011,02,20,16,45,5.30
2011,02,20,16,46,5.30
2011,02,20,16,47,5.30
2011,02,20,16,48,5.30
2011,02,20,16,49,5.30
2011,02,20,16,50,5.30
2011,02,20,16,51,5.30
2011,02,20,16,52,5.30
2011,02,20,16,53,5.30
2011,02,20,16,54,5.40
2011,02,20,16,55,5.30
2011,02,20,16,56,5.30
2011,02,20,16,57,5.30
2011,02,20,16,58,5.30
2011,02,20,16,59,5.30
2011,02,20,17,00,5.30
2011,02,20,17,01,5.30
2011,02,20,17,02,5.30
2011,02,20,17,03,5.30
2011,02,20,17,04,5.30
2011,02,20,17,05,5.30
2011,02,20,17,06,5.30
2011,02,20,17,07,5.30
2011,02,20,17,08,5.30
2011,02,20,17,09,5.30
2011,02,20,17,10,5.30
2011,02,20,17,11,5.30
2011,02,20,17,12,5.20
2011,02,20,17,13,5.20
2011,02,20,17,14,5.20
2011,02,20,17,15,5.20
2011,02,20,17,16,5.20
2011,02,20,17,17,5.20
2011,02,20,17,18,5.20
2011,02,20,17,19,5.20
2011,02,20,17,20,5.20
2011,02,20,17,21,5.20
2011,02,20,17,22,5.20
2011,02,20,17,23,5.20
2011,02,20,17,24,5.20
2011,02,20,17,25,5.20
2011,02,20,17,26,5.20
2011,02,20,17,27,5.20
2011,02,20,17,28,5.20
2011,02,20,17,29,5.20
2011,02,20,17,30,5.20
2011,02,20,17,31,5.20
2011,02,20,17,32,5.20
2011,02,20,17,33,5.20
2011,02,20,17,34,5.20
2011,02,20,17,35,5.20
2011,02,20,17,36,5.20
2011,02,20,17,37,5.20
2011,02,20,17,38,5.20
